Temperature
23 23 22 22 24 26 28 29 30 29 29 29 29 28 27 26 25 23 22 22 21 21 20 20 20 20 20 20 19 19 19 19 19 19 19 19 19 19 19 19 19 19 19 19 19 19 19 18 18
23 22 23 25 26 27 28 29 29 29 29 29 28 28 27 25 24 23 22 22 21 21 20 20 20 20 20 20 19 19 19 19 19 19 19 19 19 19 19 19 19 19 19 19 19 19 19 18 18
23 24 25 27 28 28 28 29 29 30 29 29 28 27 26 25 24 23 22 22 21 21 21 20 20 20 20 20 19 19 19 19 19 19 19 19 19 19 19 19 19 19 19 19 19 19 18 18 18
23 26 27 28 29 30 30 30 30 30 29 29 28 26 25 24 23 23 22 22 21 21 21 21 21 20 20 20 19 19 19 19 19 19 19 19 19 19 19 19 19 19 19 18 19 19 18 18 18
25 27 28 29 30 31 31 31 30 30 29 28 27 26 24 24 23 23 22 22 22 21 21 21 21 20 20 20 20 19 19 19 19 19 19 19 19 19 19 19 19 19 19 18 18 19 19 18 18
27 28 29 29 31 31 32 31 30 30 29 28 27 26 24 23 23 23 23 23 22 21 21 21 21 20 20 20 20 19 19 19 19 19 19 19 19 19 19 19 19 19 19 19 19 19 19 19 19
29 29 30 31 31 31 31 31 30 30 29 29 28 26 24 24 23 23 23 23 22 22 21 21 21 20 20 20 20 20 20 20 19 19 19 19 19 19 19 19 19 19 18 18 19 19 19 19 19
31 31 31 31 31 31 31 31 30 30 29 28 28 27 25 24 24 23 23 23 23 22 21 21 20 20 20 20 20 20 20 20 19 19 19 19 19 19 19 19 19 19 19 19 19 19 19 19 19
32 31 31 31 31 31 31 31 30 29 29 28 27 26 25 24 24 23 23 23 23 22 22 21 21 20 20 20 20 20 19 19 19 19 19 19 19 19 19 19 19 19 19 19 19 19 19 19 19
32 31 31 33 33 32 32 31 31 30 29 28 27 25 25 24 24 24 23 23 22 22 22 21 21 21 20 20 20 20 19 19 19 19 19 19 19 19 19 19 19 19 19 19 19 19 19 19 19
33 32 33 33 33 33 32 32 31 31 29 28 27 25 25 25 24 24 24 23 22 22 22 22 21 21 20 20 20 20 20 19 19 19 19 19 19 19 19 19 19 19 19 19 19 19 19 19 19
34 34 34 34 33 33 32 32 31 31 29 28 27 26 25 25 25 25 24 23 22 22 22 22 21 21 21 20 20 20 20 20 19 19 19 19 19 19 19 19 19 19 19 19 19 19 19 19 19
34 34 34 34 33 33 32 32 31 30 29 28 27 26 26 25 25 25 24 23 22 22 22 21 21 21 20 20 20 20 20 20 19 19 19 19 19 19 19 19 19 19 19 19 19 19 19 19 19
34 34 34 34 33 33 32 32 31 30 29 28 27 27 26 26 25 25 24 23 23 22 22 21 21 20 20 20 20 20 20 20 19 19 19 19 19 19 19 19 19 19 19 19 19 19 19 19 19
33 33 33 34 34 33 32 31 31 30 30 29 28 27 27 26 25 25 24 23 23 22 21 21 21 20 20 20 20 20 20 20 19 19 19 19 19 19 19 19 19 19 19 19 19 19 19 19 19
33 32 31 33 34 33 32 30 31 30 30 29 29 28 27 26 25 25 24 23 22 22 21 21 21 20 20 20 20 20 20 20 20 19 19 19 19 19 19 19 19 19 19 19 19 19 19 19 19
31 30 31 32 34 34 33 31 32 31 30 30 29 28 27 26 26 25 24 23 22 22 21 21 21 20 20 20 20 20 20 20 20 19 19 19 19 19 19 19 19 19 19 19 19 19 19 19 19
31 31 32 32 34 34 33 32 32 32 31 30 30 29 28 27 26 25 24 23 22 22 21 21 21 21 20 20 20 20 20 20 20 20 19 19 19 19 19 19 19 19 19 19 19 19 19 19 19
32 32 32 33 34 33 33 32 32 32 32 31 30 29 28 27 26 25 25 24 23 22 21 21 21 20 20 20 20 20 20 20 20 20 20 19 19 19 19 19 19 19 19 19 19 19 19 19 19
32 32 32 33 34 33 33 33 33 33 32 32 31 30 29 28 27 26 25 24 23 22 22 21 21 21 21 20 20 20 20 20 20 20 20 19 19 19 19 19 19 19 19 19 19 19 19 19 19
32 32 33 33 33 34 33 32 32 32 32 32 31 30 29 28 27 26 25 24 23 22 22 21 21 21 21 21 20 20 20 20 20 20 20 20 19 19 19 19 19 19 19 19 19 19 19 19 19
32 33 33 33 32 31 32 29 30 31 32 32 32 31 30 29 28 27 26 25 24 23 22 22 21 21 21 21 20 20 20 20 20 20 20 20 20 19 19 19 19 19 19 19 19 19 19 19 19
33 34 34 33 32 31 31 30 30 30 31 32 32 32 31 30 28 27 26 25 24 24 23 22 22 21 21 21 21 20 20 20 20 20 20 20 20 19 19 19 19 19 19 19 19 19 19 19 19
34 34 33 32 31 29 30 30 29 30 31 32 32 32 31 30 29 28 27 25 25 24 23 22 22 21 21 21 21 21 20 20 20 20 20 20 20 19 19 19 19 19 19 19 19 19 19 19 19
33 32 30 29 29 29 31 31 30 32 33 33 32 31 31 30 29 28 27 25 25 24 23 22 22 21 21 21 21 21 21 20 20 20 20 20 20 20 19 19 19 19 19 19 19 19 19 19 19
32 32 30 29 29 30 31 30 32 33 33 33 32 31 31 30 29 28 27 26 25 24 24 23 22 21 21 21 21 21 20 20 20 20 20 20 20 20 20 20 20 19 19 19 19 19 19 19 18
32 32 33 31 30 30 30 30 32 33 33 33 32 31 31 30 29 28 27 26 25 25 24 23 22 21 21 21 21 20 20 20 20 20 20 20 20 20 20 20 19 19 19 19 19 19 19 19 18
34 34 32 31 29 29 29 29 30 31 32 32 31 31 30 30 29 28 27 27 26 25 24 23 22 22 21 21 21 20 20 20 20 20 20 20 20 20 20 19 19 19 19 19 19 19 19 19 18
33 33 32 31 31 30 28 29 32 31 31 31 31 30 30 29 29 28 28 27 26 25 24 23 22 22 21 21 21 20 20 20 20 20 20 20 19 19 19 19 19 19 19 19 19 19 18 18 18
34 33 33 31 30 31 30 29 32 32 31 31 30 30 29 29 29 28 27 26 26 25 24 23 23 22 21 21 21 20 20 20 20 20 20 19 19 19 19 19 19 19 19 19 18 18 18 18 18
Wind_Speed
11 11 9 5 4 1 9 12 12 12 11 11 11 11 14 14 10 9 7 10 13 13 12 13 12 12 12 12 12 12 13 13 13 13 13 14 14 15 16 16 17 18 18 18 18 19 19 19 19
10 11 8 5 2 5 10 11 12 11 9 9 11 13 15 14 12 10 9 11 12 13 12 12 13 12 12 12 12 12 12 13 13 13 14 14 15 16 17 17 17 17 18 18 18 19 19 18 18
12 13 6 2 4 8 10 10 9 10 9 9 11 12 11 10 11 9 9 11 12 13 13 13 13 12 12 12 12 12 13 13 13 14 14 14 16 17 17 17 17 17 17 17 17 17 17 17 16
7 7 5 1 8 12 10 8 9 10 9 9 10 10 11 11 10 10 10 11 12 13 13 13 13 12 12 12 12 12 12 13 13 13 14 15 16 16 16 17 17 17 17 17 16 16 16 15 14
8 5 2 4 10 11 10 9 10 10 9 11 13 13 12 13 13 12 10 10 12 13 13 14 13 12 12 12 11 12 12 12 12 13 14 15 16 16 16 16 16 16 16 16 15 15 15 14 13
6 4 0 6 10 10 10 9 10 11 11 11 13 14 12 12 12 10 9 10 12 13 13 14 14 13 12 11 11 11 11 11 12 13 14 15 15 15 15 15 15 15 15 15 14 13 13 12 10
8 4 3 8 10 10 10 10 10 10 10 9 10 13 11 11 11 10 9 9 11 12 12 12 13 12 11 10 11 11 11 12 12 13 14 14 15 14 14 14 14 14 13 13 12 12 11 10 8
6 4 5 8 10 11 10 10 10 11 10 8 8 9 11 11 11 11 10 9 10 10 11 10 11 11 10 10 10 11 12 12 13 13 14 13 13 13 13 13 13 13 12 11 11 10 9 8 7
7 2 6 8 9 10 10 10 11 10 10 11 13 14 13 13 12 11 10 9 9 9 9 9 9 9 9 10 11 11 11 11 11 11 12 11 9 10 11 12 13 12 11 11 10 10 9 8 8
1 3 7 7 8 9 9 9 9 10 10 12 14 15 13 12 11 10 10 9 8 7 9 8 7 7 6 8 9 8 8 9 7 7 8 7 6 7 10 11 12 11 11 11 11 11 10 9 7
3 4 5 7 8 8 8 9 8 9 10 11 13 14 13 12 10 10 10 10 8 7 7 9 8 6 5 5 6 5 6 6 7 6 6 6 5 7 7 7 8 9 10 8 10 10 8 8 5
2 4 4 6 7 7 7 8 8 10 11 13 14 14 12 11 9 9 10 10 8 6 7 8 8 6 5 4 4 4 4 4 5 5 6 4 2 3 3 3 4 5 5 4 5 4 4 4 5
0 2 4 5 6 6 7 8 8 11 13 14 14 13 11 10 9 8 9 10 8 6 7 8 7 6 4 3 2 4 4 4 6 5 5 4 3 3 3 1 1 3 4 4 3 3 3 2 2
1 1 1 3 5 6 6 6 8 11 13 14 13 12 11 10 9 9 9 9 8 7 7 7 7 6 5 3 2 2 4 4 5 5 5 4 3 3 2 2 1 2 3 3 3 3 3 2 2
3 3 1 2 5 5 4 6 5 10 11 12 12 11 10 10 9 9 9 8 8 7 7 6 7 7 4 4 2 3 3 4 3 5 6 4 4 3 2 1 1 2 2 3 3 2 2 3 3
5 5 4 4 4 6 4 5 9 11 10 11 11 11 10 9 10 9 10 8 8 8 7 5 6 8 5 3 2 2 3 4 3 4 5 4 4 3 2 1 1 2 2 2 2 2 1 1 2
6 7 7 6 4 5 5 5 9 12 11 11 11 11 11 11 10 10 11 10 9 8 7 5 5 7 6 4 3 2 3 3 2 3 4 4 3 3 1 1 1 1 2 2 2 2 1 1 1
7 6 5 4 3 4 6 6 9 11 12 12 12 12 12 12 11 11 11 11 10 9 7 6 5 5 5 4 3 2 3 3 2 3 4 4 2 3 1 1 1 1 2 2 2 1 0 1 1
10 7 4 2 3 3 4 6 9 10 10 11 12 12 12 12 12 12 12 12 11 9 8 7 6 6 4 3 3 3 3 2 3 3 5 4 3 3 1 1 1 2 1 2 2 2 1 1 1
10 7 5 4 5 5 5 5 7 10 10 11 12 12 12 13 13 12 12 11 11 10 9 8 7 7 6 4 3 3 3 2 3 2 4 4 3 3 3 2 1 1 1 2 1 1 1 1 1
10 8 7 4 6 6 5 5 6 7 9 10 11 12 13 14 14 14 12 11 11 11 10 9 7 7 7 5 3 3 3 1 2 3 3 3 3 3 1 1 1 1 1 2 2 2 2 1 0
9 8 8 6 6 6 7 4 6 7 9 11 12 12 13 14 14 15 14 12 12 12 12 9 8 7 6 5 4 4 4 3 2 3 3 3 3 3 3 2 1 1 1 1 2 2 2 1 1
8 7 7 8 8 8 7 4 4 6 8 9 10 11 11 11 13 14 14 12 12 12 12 10 9 8 7 6 5 4 3 3 2 2 4 3 3 3 2 2 1 1 1 0 0 0 0 1 1
8 8 7 8 7 9 9 6 5 7 8 8 9 9 10 11 11 12 13 12 11 11 11 11 10 8 7 6 5 4 4 3 2 2 3 3 2 2 2 2 1 1 1 1 1 1 1 1 1
8 9 6 6 6 7 8 6 5 7 8 8 7 8 10 11 11 11 11 12 11 11 11 11 11 9 8 7 6 5 4 3 3 3 3 3 2 3 2 2 2 1 1 1 1 1 1 1 1
10 12 9 6 6 4 5 4 4 6 6 7 8 9 9 9 10 12 12 11 11 11 10 11 11 10 9 8 6 5 4 3 2 2 2 2 1 2 3 3 2 2 2 2 2 2 2 2 2
12 12 12 10 10 8 4 3 4 6 7 8 8 9 10 9 10 11 11 12 12 12 10 11 11 10 9 8 6 5 4 3 3 2 2 1 1 2 3 3 3 2 2 1 2 2 2 1 1
14 12 8 8 7 7 6 5 4 8 7 6 6 7 8 8 9 10 10 10 10 10 10 10 11 10 8 7 7 6 5 4 3 2 2 2 1 1 2 3 3 3 2 2 2 2 2 2 2
11 13 10 8 9 8 7 3 2 6 6 5 6 6 7 7 6 8 9 8 9 10 10 10 10 10 9 8 6 5 6 5 4 3 3 2 2 2 2 3 3 2 2 2 3 3 3 3 2
11 12 12 9 9 9 8 4 2 4 6 7 6 6 6 5 6 6 8 7 7 8 9 9 9 9 8 8 7 6 6 5 5 4 4 4 3 3 3 3 3 3 3 3 3 4 3 3 3
Wind_Direction
200 214 220 242 255 267 53 58 61 58 56 51 49 59 60 54 61 85 93 91 95 95 94 87 79 76 75 75 77 77 76 75 78 80 85 87 94 100 107 109 111 111 112 114 115 115 116 116 118
222 224 230 244 293 58 59 59 58 60 62 64 63 65 70 67 77 94 98 96 96 96 93 88 87 81 77 78 78 79 79 79 81 83 88 90 96 98 103 107 108 109 111 114 115 116 117 117 120
250 250 254 247 43 64 66 63 70 74 65 64 71 63 64 78 85 99 110 107 100 96 96 96 93 87 83 81 81 80 81 83 85 88 91 93 97 102 104 107 108 108 110 113 116 117 118 120 124
250 247 244 49 62 67 74 78 82 81 73 69 74 75 73 80 96 108 114 110 107 104 100 102 99 96 90 86 85 83 82 86 88 91 92 96 100 103 106 107 108 109 110 112 112 116 118 121 126
247 270 274 67 72 72 72 70 76 77 74 72 80 88 88 93 103 111 115 116 111 106 106 109 108 103 97 93 89 87 87 89 93 95 95 98 100 103 106 107 108 109 109 111 113 115 118 121 127
261 245 242 74 74 77 75 73 80 79 82 89 93 94 96 108 112 117 117 112 110 110 110 114 116 108 102 99 96 93 93 96 100 105 103 101 101 104 107 110 109 111 113 115 118 120 122 125 132
265 301 46 86 81 75 72 72 75 80 81 84 97 100 108 113 117 119 113 110 110 111 114 122 124 118 113 109 105 102 103 104 107 110 109 107 107 107 109 113 116 118 120 122 126 129 131 137 147
273 305 37 72 80 79 77 76 77 80 79 83 91 103 119 121 123 116 112 108 105 111 115 122 124 126 124 122 121 115 114 113 115 117 115 113 114 117 120 120 122 127 130 134 138 143 147 154 165
278 342 49 61 75 86 90 90 91 88 88 79 76 95 118 128 125 122 119 111 104 105 109 115 115 125 130 126 130 133 127 122 123 124 127 130 128 127 126 123 134 140 145 150 154 159 164 172 186
274 56 66 68 78 91 98 102 110 108 100 94 95 104 122 130 130 129 125 117 110 112 113 109 110 110 113 112 125 136 127 133 132 132 142 138 122 120 122 134 147 154 160 165 172 177 181 192 195
79 79 85 87 87 90 94 98 97 104 108 112 119 123 131 132 136 135 126 119 116 118 110 109 103 99 97 102 122 123 122 130 126 123 119 108 120 128 132 141 153 168 175 181 175 188 199 199 196
73 96 84 85 87 92 95 93 94 90 103 118 126 132 136 139 140 134 123 119 121 121 109 107 106 91 71 72 94 113 116 118 115 112 100 107 104 110 119 140 153 170 172 166 170 177 183 176 169
2 96 102 96 103 102 99 103 102 104 111 120 128 135 142 144 139 127 121 123 125 123 114 103 101 94 87 64 65 99 94 102 108 106 99 95 100 83 88 87 107 145 141 144 155 152 169 161 155
312 17 107 126 124 115 110 103 111 117 125 129 133 138 144 142 140 132 131 128 133 128 117 115 115 107 101 97 73 97 110 111 110 109 105 105 103 100 98 112 119 132 131 137 150 157 146 135 137
296 280 235 170 154 131 124 115 124 130 135 139 141 146 145 143 141 138 136 138 137 131 122 126 128 124 126 123 142 121 123 122 118 117 117 115 112 117 117 127 139 132 133 133 136 129 140 152 164
266 257 244 225 200 155 170 138 142 147 151 149 150 151 150 149 152 147 144 143 139 135 131 148 141 133 136 131 138 115 109 111 114 121 128 130 122 124 133 126 118 135 133 130 139 128 128 145 152
249 239 232 212 207 176 167 142 150 162 161 157 160 158 159 160 158 152 152 151 146 140 143 152 131 136 144 143 146 133 109 102 120 127 127 136 143 133 132 100 96 149 139 140 139 117 113 167 142
252 239 237 209 192 195 170 165 165 170 167 164 166 165 168 166 163 158 156 154 151 145 147 151 148 141 146 146 152 149 127 142 150 135 132 141 155 134 144 130 98 89 82 90 95 102 151 199 200
266 264 257 262 212 228 199 176 173 178 175 169 170 170 172 171 163 162 162 158 156 150 149 153 160 151 158 159 162 158 157 172 158 155 143 148 159 143 135 78 91 108 115 127 142 146 187 176 150
265 273 254 234 238 233 224 198 187 184 188 177 174 175 173 168 164 166 168 163 160 155 154 157 164 162 170 171 175 171 158 169 162 139 135 152 160 164 166 149 189 130 148 144 165 149 182 217 165
254 259 263 250 248 249 235 226 215 195 189 184 180 177 177 174 170 168 170 168 165 161 162 170 170 164 176 172 173 176 151 173 153 145 154 166 163 165 108 152 198 193 195 172 190 185 191 211 242
248 248 260 269 267 260 254 238 218 211 194 192 185 177 181 174 172 173 175 175 173 169 168 166 164 162 167 172 182 181 170 181 179 163 156 160 171 173 173 193 195 209 209 176 204 172 212 204 228
249 254 263 270 269 267 249 245 215 214 207 198 187 177 175 168 169 174 174 174 175 172 169 165 162 162 165 177 189 196 192 184 169 153 147 164 177 181 180 171 172 190 168 176 263 163 242 252 268
247 258 264 270 270 259 254 248 214 199 200 194 182 172 168 166 166 172 169 166 171 168 165 165 159 161 165 175 188 194 209 193 178 170 162 174 173 182 179 157 160 164 173 197 212 205 196 237 280
238 251 251 252 246 243 237 240 192 181 175 175 172 169 167 167 166 161 161 165 170 170 168 162 158 164 170 176 185 185 205 198 183 193 182 186 180 176 170 167 162 168 184 201 209 203 205 219 234
235 242 247 253 263 263 231 232 176 148 136 142 153 158 158 159 157 156 159 165 173 171 167 161 160 165 172 176 182 179 191 201 191 200 197 193 194 160 151 161 162 171 216 218 213 221 212 202 219
239 241 250 257 264 274 254 208 157 138 138 136 143 148 153 159 157 157 162 169 174 172 167 162 158 163 169 173 172 170 171 181 190 177 208 207 171 162 148 159 159 178 212 230 220 226 223 193 217
245 256 254 260 259 265 267 254 209 160 158 142 137 137 143 153 163 159 160 167 166 166 161 156 155 161 165 168 177 178 178 185 194 180 183 203 182 162 148 165 174 183 203 216 212 226 215 196 209
233 245 255 263 267 263 263 257 195 146 143 146 154 151 139 140 146 152 152 157 159 160 161 158 155 160 168 173 175 173 178 186 191 197 187 194 190 179 178 193 193 196 208 214 219 222 209 207 216
249 252 251 252 258 268 266 244 193 140 154 152 141 130 115 120 129 135 139 138 147 153 157 158 161 167 171 171 170 176 177 184 191 196 197 194 194 198 200 205 205 212 217 221 223 232 211 213 218
Height
1477 1477 1478 1481 1479 1477 1474 1467 1463 1466 1468 1469 1469 1470 1474 1477 1483 1495 1497 1495 1495 1495 1494 1493 1493 1492 1492 1491 1490 1490 1489 1488 1488 1488 1487 1487 1487 1488 1490 1492 1495 1499 1501 1503 1506 1508 1511 1514 1516
1476 1478 1481 1479 1478 1483 1479 1468 1469 1469 1470 1471 1472 1473 1477 1483 1488 1493 1496 1497 1497 1496 1496 1495 1495 1494 1494 1493 1492 1492 1491 1491 1491 1490 1490 1490 1490 1491 1493 1495 1499 1501 1503 1506 1509 1511 1514 1517 1519
1477 1480 1481 1474 1475 1479 1479 1469 1469 1470 1471 1472 1474 1478 1482 1487 1491 1494 1497 1498 1498 1498 1498 1497 1497 1496 1496 1495 1494 1494 1494 1493 1493 1493 1493 1493 1494 1495 1497 1499 1502 1504 1506 1509 1512 1515 1517 1519 1522
1479 1480 1477 1473 1474 1468 1469 1468 1467 1470 1472 1473 1475 1481 1487 1491 1493 1496 1498 1499 1500 1500 1500 1499 1499 1499 1498 1497 1497 1496 1496 1496 1496 1496 1496 1497 1498 1499 1501 1503 1505 1508 1510 1512 1515 1517 1520 1522 1525
1481 1478 1476 1474 1471 1466 1466 1467 1469 1471 1473 1475 1478 1484 1489 1493 1495 1497 1499 1500 1501 1502 1502 1501 1501 1501 1500 1499 1499 1498 1497 1497 1498 1498 1499 1500 1502 1503 1505 1507 1509 1511 1514 1516 1518 1521 1523 1525 1527
1478 1472 1477 1477 1471 1466 1466 1468 1470 1472 1475 1478 1481 1485 1491 1496 1497 1499 1501 1502 1503 1503 1503 1503 1503 1503 1502 1502 1501 1500 1499 1498 1498 1500 1502 1503 1505 1507 1509 1511 1513 1515 1517 1519 1521 1524 1526 1528 1530
1475 1470 1471 1470 1471 1470 1469 1470 1472 1474 1477 1479 1482 1487 1494 1497 1499 1501 1502 1503 1504 1505 1505 1505 1505 1505 1504 1504 1503 1502 1500 1500 1501 1503 1505 1507 1509 1510 1512 1514 1516 1518 1520 1522 1524 1526 1528 1530 1532
1471 1468 1469 1468 1471 1473 1471 1472 1475 1477 1480 1482 1484 1488 1494 1499 1501 1502 1504 1505 1506 1507 1507 1507 1507 1507 1506 1505 1505 1504 1504 1504 1505 1507 1509 1511 1512 1514 1515 1517 1519 1520 1522 1524 1527 1529 1530 1532 1534
1469 1471 1475 1471 1471 1472 1471 1474 1477 1480 1482 1484 1486 1490 1495 1499 1502 1504 1505 1507 1508 1509 1509 1510 1510 1509 1508 1507 1506 1507 1508 1509 1510 1511 1513 1514 1515 1517 1518 1520 1521 1523 1524 1526 1528 1530 1532 1534 1536
1466 1474 1473 1466 1466 1469 1471 1474 1476 1479 1483 1487 1491 1495 1498 1500 1503 1504 1506 1508 1509 1510 1511 1512 1512 1511 1511 1510 1509 1510 1512 1513 1514 1515 1517 1518 1519 1520 1521 1522 1524 1525 1526 1528 1530 1532 1534 1535 1537
1465 1469 1466 1465 1467 1469 1471 1473 1476 1478 1483 1488 1492 1496 1499 1501 1503 1505 1507 1509 1510 1512 1513 1513 1513 1513 1513 1513 1513 1514 1516 1516 1518 1519 1520 1520 1521 1522 1523 1524 1525 1526 1527 1529 1531 1533 1535 1536 1538
1465 1465 1465 1466 1468 1469 1472 1474 1477 1479 1484 1489 1493 1496 1499 1502 1504 1505 1507 1510 1512 1513 1514 1514 1515 1515 1515 1515 1516 1517 1518 1519 1520 1521 1521 1522 1523 1524 1524 1525 1526 1527 1529 1531 1532 1534 1535 1537 1539
1465 1465 1465 1467 1468 1471 1472 1475 1478 1482 1486 1490 1494 1497 1500 1502 1504 1506 1508 1510 1512 1513 1515 1515 1516 1516 1516 1517 1518 1519 1520 1521 1522 1522 1523 1524 1524 1525 1526 1526 1528 1529 1530 1532 1533 1534 1536 1537 1539
1466 1465 1465 1466 1468 1470 1473 1475 1478 1483 1487 1490 1494 1497 1499 1502 1504 1506 1509 1511 1512 1514 1515 1516 1516 1517 1517 1518 1519 1521 1522 1523 1524 1524 1524 1525 1526 1526 1527 1528 1529 1530 1531 1532 1533 1535 1536 1537 1539
1466 1467 1467 1466 1467 1469 1472 1479 1479 1482 1486 1490 1493 1497 1499 1502 1504 1507 1509 1511 1512 1514 1515 1516 1517 1517 1518 1519 1520 1522 1523 1524 1525 1525 1526 1526 1527 1528 1528 1529 1530 1531 1532 1533 1534 1535 1536 1537 1538
1468 1472 1477 1468 1465 1467 1474 1485 1478 1481 1485 1488 1492 1495 1499 1502 1504 1507 1509 1511 1512 1513 1515 1516 1517 1518 1519 1520 1521 1523 1524 1525 1526 1526 1527 1527 1528 1529 1529 1530 1531 1532 1533 1534 1534 1535 1536 1538 1538
1475 1482 1479 1470 1462 1463 1470 1479 1476 1479 1482 1486 1490 1494 1497 1501 1503 1506 1508 1510 1512 1513 1514 1516 1517 1518 1519 1520 1521 1523 1525 1526 1527 1527 1528 1528 1529 1529 1530 1530 1531 1532 1533 1534 1535 1535 1536 1538 1538
1480 1476 1473 1470 1462 1462 1469 1472 1473 1475 1479 1483 1487 1491 1495 1498 1501 1505 1507 1509 1511 1512 1514 1515 1517 1518 1519 1520 1522 1523 1525 1526 1527 1528 1528 1529 1529 1530 1530 1531 1531 1532 1533 1534 1535 1535 1536 1537 1538
1467 1469 1472 1466 1460 1463 1467 1469 1470 1472 1475 1478 1483 1487 1492 1495 1499 1503 1506 1508 1510 1512 1513 1514 1516 1517 1519 1520 1522 1523 1525 1526 1527 1528 1529 1529 1529 1530 1530 1531 1531 1532 1533 1533 1534 1535 1536 1537 1538
1466 1470 1470 1465 1459 1462 1466 1467 1466 1468 1471 1474 1479 1483 1488 1492 1497 1501 1504 1506 1509 1510 1511 1513 1515 1516 1518 1520 1521 1523 1525 1526 1527 1528 1529 1529 1530 1530 1531 1531 1532 1532 1532 1533 1534 1534 1535 1536 1537
1467 1469 1467 1466 1461 1458 1465 1472 1468 1466 1469 1472 1475 1479 1484 1489 1493 1497 1501 1504 1507 1509 1510 1512 1514 1515 1517 1519 1521 1523 1524 1526 1527 1528 1529 1529 1530 1530 1530 1531 1531 1532 1532 1533 1533 1533 1534 1535 1536
1469 1459 1459 1462 1469 1474 1471 1489 1476 1469 1469 1469 1471 1475 1480 1484 1490 1494 1498 1501 1504 1507 1509 1511 1513 1514 1516 1518 1520 1522 1524 1525 1527 1528 1528 1529 1530 1530 1530 1531 1531 1531 1532 1532 1532 1533 1533 1534 1535
1460 1455 1457 1462 1469 1475 1472 1483 1481 1469 1471 1468 1467 1471 1476 1481 1486 1491 1495 1498 1502 1505 1507 1509 1511 1513 1515 1517 1519 1521 1523 1525 1526 1527 1528 1528 1529 1529 1530 1530 1530 1531 1531 1531 1531 1532 1532 1533 1534
1453 1456 1460 1463 1472 1490 1479 1482 1486 1469 1467 1465 1465 1469 1474 1478 1483 1488 1492 1496 1500 1503 1506 1508 1510 1512 1514 1516 1518 1520 1522 1523 1524 1526 1526 1527 1528 1529 1529 1530 1530 1530 1530 1530 1530 1531 1531 1532 1533
1455 1468 1485 1493 1494 1491 1470 1473 1473 1458 1456 1460 1463 1467 1472 1476 1481 1486 1491 1494 1498 1502 1504 1506 1508 1510 1512 1514 1517 1518 1520 1521 1523 1524 1525 1526 1527 1528 1528 1529 1529 1529 1529 1529 1529 1529 1530 1531 1531
1457 1464 1485 1500 1499 1484 1471 1475 1462 1451 1454 1458 1461 1465 1470 1475 1479 1484 1488 1493 1496 1499 1502 1505 1506 1509 1511 1513 1515 1517 1518 1520 1521 1523 1524 1525 1526 1527 1527 1527 1528 1528 1528 1528 1528 1528 1529 1529 1529
1457 1458 1456 1471 1479 1486 1477 1468 1457 1450 1453 1457 1461 1465 1469 1474 1478 1482 1486 1490 1495 1497 1500 1502 1504 1507 1509 1512 1514 1515 1517 1518 1520 1522 1523 1524 1525 1526 1526 1526 1526 1526 1526 1526 1527 1527 1527 1527 1528
1446 1448 1458 1470 1488 1496 1485 1479 1470 1460 1458 1458 1461 1464 1469 1473 1476 1480 1485 1489 1492 1495 1498 1501 1503 1505 1508 1510 1512 1514 1515 1517 1519 1520 1521 1523 1523 1524 1524 1525 1525 1525 1525 1525 1525 1525 1525 1525 1526
1449 1452 1455 1463 1466 1485 1495 1485 1455 1455 1456 1459 1461 1465 1468 1471 1475 1479 1483 1487 1490 1494 1497 1499 1502 1504 1506 1508 1510 1513 1514 1516 1517 1519 1520 1521 1522 1522 1523 1523 1523 1523 1523 1523 1523 1523 1523 1524 1524
1443 1447 1452 1468 1472 1467 1476 1480 1450 1453 1455 1458 1461 1464 1468 1471 1475 1478 1482 1485 1489 1492 1495 1498 1500 1503 1505 1507 1509 1511 1513 1514 1515 1517 1518 1519 1519 1520 1521 1521 1521 1521 1521 1521 1521 1521 1521 1522 1522